GFSSGP_prec_pwat_231.txt.gz
Precipitable_Water
2.08 1.99 2.02 1.69 1.16 1.22 1.04 1.10 1.28 1.15 1.16 1.38 1.39 1.30 1.14 1.24 0.96 0.83 1.66 1.67 1.73 1.77 1.93 1.98 1.78 1.69 1.68 1.71 1.67 1.70 1.74 1.77 1.70 1.72 1.69 1.67 1.64 1.65 1.64 1.63 1.63 1.63 1.69 1.73 1.69 1.69 1.74 1.79 1.70
2.09 1.98 1.79 1.39 1.01 0.91 1.01 1.35 1.20 1.24 1.33 1.46 1.43 1.45 1.33 1.11 1.38 1.50 1.48 1.77 1.71 1.79 1.95 1.95 1.80 1.74 1.69 1.68 1.70 1.70 1.73 1.73 1.69 1.64 1.61 1.58 1.58 1.57 1.59 1.63 1.67 1.67 1.74 1.74 1.75 1.71 1.71 1.78 1.70
1.98 2.05 1.45 1.19 1.02 0.88 0.95 1.14 1.26 1.26 1.40 1.40 1.33 1.48 1.35 1.12 1.33 1.44 1.71 1.77 1.73 1.79 1.92 2.09 1.85 1.78 1.72 1.68 1.69 1.70 1.70 1.70 1.67 1.64 1.60 1.61 1.57 1.59 1.60 1.59 1.63 1.68 1.72 1.76 1.86 1.89 1.87 1.79 1.80
1.67 1.61 1.47 1.00 0.89 0.99 1.06 1.12 1.21 1.29 1.45 1.47 1.40 1.21 1.49 1.50 1.42 1.54 1.74 1.74 1.68 1.75 1.86 1.96 1.97 1.77 1.73 1.68 1.65 1.70 1.69 1.69 1.65 1.62 1.57 1.56 1.64 1.74 1.70 1.70 1.73 1.68 1.69 1.76 1.83 1.90 1.90 1.93 1.89
1.43 1.41 0.97 0.88 0.90 1.03 1.14 1.14 1.21 1.11 1.19 1.28 1.36 1.21 1.37 1.53 1.72 1.71 1.66 1.69 1.62 1.71 1.81 1.91 2.08 1.83 1.77 1.79 1.73 1.75 1.74 1.74 1.73 1.73 1.80 1.85 1.91 1.87 1.89 1.92 1.85 1.85 1.79 1.76 1.82 1.90 1.96 1.93 1.97
1.06 1.20 0.86 0.71 0.77 0.93 1.11 1.20 1.14 1.04 1.23 1.25 1.24 1.27 1.40 1.84 1.73 1.77 1.66 1.66 1.72 1.71 1.86 1.94 2.08 1.96 1.90 1.88 1.89 1.89 1.88 1.92 1.97 2.03 2.06 1.99 2.01 1.98 1.95 1.96 1.94 1.91 1.87 1.81 1.79 1.91 1.96 1.97 1.95
0.93 0.96 0.71 0.72 0.75 0.83 0.96 1.23 1.11 0.98 0.99 1.05 1.21 1.06 1.38 1.67 1.84 1.87 1.73 1.72 1.75 1.82 1.85 1.95 2.02 2.12 2.00 1.95 1.96 1.97 1.98 2.05 2.09 2.07 2.02 2.00 2.03 2.02 1.98 1.95 1.90 1.90 1.97 1.89 1.80 1.88 1.86 1.89 1.89
0.81 0.86 0.71 0.71 0.67 0.67 1.10 1.18 1.26 1.17 1.09 1.30 1.41 1.04 1.15 1.58 1.82 1.78 1.75 1.72 1.77 1.82 1.84 1.87 1.94 2.05 2.05 2.06 2.07 2.04 2.03 2.00 2.09 2.06 2.03 2.04 2.02 2.04 1.98 1.94 1.97 2.02 1.95 1.84 1.78 1.81 1.78 1.78 1.80
0.83 0.60 0.60 0.55 0.48 0.52 1.04 1.01 1.27 1.38 1.21 1.27 1.37 1.35 1.46 1.74 1.80 1.73 1.65 1.68 1.77 1.80 1.85 1.85 1.86 1.97 2.05 2.10 2.12 2.07 2.08 2.01 2.02 2.05 2.03 2.02 2.01 1.98 1.98 2.02 2.01 2.05 2.00 1.89 1.85 1.85 1.87 1.79 1.75
0.60 0.51 0.58 0.50 0.54 0.51 0.88 0.90 1.01 1.12 1.02 1.11 1.13 1.38 1.57 1.70 1.77 1.55 1.49 1.53 1.65 1.69 1.75 1.80 1.79 1.88 1.97 1.98 1.97 1.98 2.01 1.90 1.94 2.00 2.07 2.04 1.98 2.00 2.03 2.13 2.10 2.10 2.03 1.95 1.81 1.81 1.86 1.82 1.68
0.61 0.44 0.55 0.60 0.63 0.62 0.67 0.80 1.01 0.98 0.92 1.08 1.02 1.12 1.42 1.50 1.60 1.56 1.57 1.59 1.54 1.67 1.74 1.81 1.76 1.82 1.86 1.84 1.89 1.93 1.99 1.96 1.96 1.98 1.99 2.02 2.00 2.05 2.07 2.18 2.23 2.19 2.19 1.96 1.87 1.77 1.81 1.76 1.68
0.52 0.61 0.59 0.60 0.67 0.66 0.64 0.86 0.85 0.92 1.00 1.20 1.22 1.31 1.36 1.35 1.44 1.45 1.56 1.59 1.52 1.61 1.71 1.75 1.75 1.78 1.83 1.90 1.89 1.99 1.96 2.02 1.89 2.01 1.95 1.91 1.97 2.08 2.15 2.04 2.14 2.14 2.17 2.06 1.88 1.72 1.69 1.74 1.72
0.51 0.50 0.56 0.59 0.64 0.69 0.75 0.66 0.75 0.80 1.04 1.18 1.26 1.33 1.34 1.37 1.46 1.60 1.66 1.79 1.70 1.58 1.65 1.70 1.76 1.74 1.81 1.92 1.99 2.02 2.02 2.04 1.93 1.85 1.87 1.93 1.99 2.08 2.15 2.11 2.15 2.12 2.09 2.10 2.01 1.78 1.63 1.62 1.66
0.50 0.49 0.52 0.57 0.60 0.64 0.64 0.67 0.73 0.80 1.04 1.09 1.22 1.33 1.45 1.45 1.52 1.60 1.63 1.67 1.85 1.70 1.71 1.73 1.77 1.81 1.88 1.96 2.05 2.01 2.03 2.05 1.95 1.82 1.80 1.88 1.88 2.00 2.09 2.12 2.12 2.13 2.15 2.19 2.16 2.00 1.80 1.66 1.70
0.55 0.50 0.53 0.53 0.54 0.54 0.70 0.60 0.58 0.84 0.98 1.05 1.17 1.32 1.45 1.60 1.59 1.58 1.67 1.63 1.70 1.74 1.84 1.78 1.78 1.88 1.89 2.07 2.08 2.00 2.01 2.03 2.01 2.03 1.89 1.82 1.86 1.83 2.11 2.06 2.11 2.08 2.10 2.17 2.19 2.17 2.03 1.79 1.80
0.50 0.52 0.43 0.52 0.54 0.55 0.62 0.40 0.61 0.85 0.95 1.00 1.14 1.30 1.38 1.45 1.54 1.66 1.69 1.77 1.81 1.75 1.79 1.79 1.84 1.85 1.89 1.98 2.00 1.97 1.98 2.02 2.01 2.00 1.98 1.84 1.82 1.78 1.95 2.07 2.11 2.20 2.16 2.11 2.04 2.03 1.98 1.97 1.86
0.42 0.36 0.41 0.42 0.55 0.53 0.51 0.45 0.62 0.89 0.99 1.00 1.06 1.21 1.34 1.38 1.39 1.54 1.67 1.73 1.81 1.71 1.70 1.75 1.82 1.79 1.83 1.93 1.97 1.97 1.94 1.91 1.97 2.10 2.03 1.98 1.86 1.71 1.82 1.95 1.99 2.00 2.03 2.07 2.02 2.00 1.97 1.90 1.90
0.29 0.31 0.35 0.34 0.45 0.49 0.48 0.48 0.65 0.87 0.92 0.93 1.03 1.13 1.21 1.27 1.32 1.51 1.60 1.73 1.81 1.82 1.72 1.72 1.79 1.73 1.80 1.88 1.99 1.94 1.90 1.90 1.92 1.99 2.04 2.05 1.95 1.78 1.72 1.84 1.96 1.95 2.01 1.90 1.93 1.97 2.02 1.94 1.85
0.30 0.29 0.31 0.34 0.44 0.42 0.44 0.46 0.63 0.80 0.89 0.87 0.92 0.98 1.08 1.22 1.35 1.45 1.57 1.73 1.77 1.82 1.81 1.68 1.68 1.72 1.76 1.80 1.79 1.77 1.68 1.85 1.88 1.96 2.07 2.08 2.06 1.92 1.84 1.81 1.89 1.90 1.93 1.93 1.93 1.83 1.83 1.88 2.06
0.29 0.30 0.31 0.35 0.39 0.41 0.42 0.44 0.64 0.76 0.84 0.86 0.84 0.94 1.11 1.22 1.28 1.48 1.55 1.65 1.75 1.77 1.76 1.78 1.73 1.73 1.75 1.79 1.82 1.80 1.77 1.82 1.89 1.96 2.05 2.14 2.13 2.07 1.95 1.80 1.81 1.84 1.77 1.86 1.97 1.83 1.75 1.93 2.08
0.29 0.28 0.31 0.30 0.38 0.43 0.44 0.46 0.63 0.80 0.95 1.03 1.02 1.04 1.16 1.32 1.35 1.45 1.45 1.60 1.74 1.74 1.78 1.76 1.79 1.80 1.77 1.80 1.86 1.78 1.80 1.82 1.83 1.85 1.99 2.09 2.12 2.11 2.07 1.85 1.94 1.74 1.80 1.72 1.93 1.93 1.80 1.69 2.06
0.22 0.29 0.31 0.37 0.35 0.33 0.45 0.34 0.59 0.75 0.84 0.96 1.06 1.08 1.10 1.23 1.28 1.35 1.42 1.38 1.63 1.73 1.87 1.96 2.00 1.90 1.87 1.86 1.76 1.72 1.63 1.54 1.68 1.80 1.92 1.97 2.07 2.12 2.12 2.06 2.01 1.75 1.55 1.67 1.64 1.85 1.76 1.80 1.78
0.23 0.29 0.33 0.38 0.35 0.38 0.43 0.40 0.52 0.70 0.71 0.87 0.98 1.06 1.12 1.08 1.06 1.20 1.37 1.47 1.64 1.78 1.84 1.95 2.03 2.03 2.03 1.93 1.83 1.73 1.67 1.78 1.85 1.87 1.85 1.94 2.03 2.10 2.09 2.13 2.02 1.84 1.59 1.57 1.65 1.94 1.81 1.86 1.79
0.29 0.28 0.36 0.39 0.38 0.33 0.44 0.45 0.47 0.57 0.66 0.76 0.88 1.03 1.08 0.99 0.98 1.15 1.39 1.51 1.64 1.83 1.98 2.03 2.00 2.09 1.87 2.00 1.92 1.78 1.70 1.82 1.91 1.91 1.82 1.83 1.95 2.04 2.05 2.07 2.07 2.03 1.71 1.52 1.54 1.74 1.80 1.73 1.82
0.31 0.32 0.29 0.28 0.29 0.31 0.50 0.46 0.50 0.68 0.79 0.81 0.84 0.96 1.08 1.00 1.02 1.05 1.22 1.43 1.57 1.71 1.89 2.00 1.99 1.97 2.01 2.01 1.93 1.87 1.86 1.88 1.85 1.88 1.86 1.85 1.84 1.93 2.00 2.01 1.97 1.99 1.73 1.63 1.62 1.71 1.76 1.76 1.80
0.32 0.33 0.29 0.24 0.26 0.32 0.52 0.41 0.52 0.78 0.86 0.92 0.92 0.98 1.01 1.00 0.97 1.09 1.19 1.33 1.50 1.64 1.74 1.78 1.76 1.96 2.02 1.95 1.91 1.95 2.03 1.95 1.89 1.90 1.89 1.85 1.83 1.88 2.02 2.03 2.04 1.96 1.76 1.61 1.70 1.70 1.76 1.83 1.81
0.34 0.34 0.42 0.35 0.39 0.38 0.47 0.55 0.65 0.75 0.75 0.78 0.80 0.83 0.87 0.84 0.99 1.03 1.16 1.29 1.44 1.60 1.64 1.76 1.69 1.76 1.80 1.82 1.82 1.75 1.97 1.94 1.91 1.92 1.91 1.92 1.90 1.95 2.03 2.05 2.04 1.99 1.69 1.65 1.68 1.70 1.75 1.91 1.86
0.43 0.50 0.40 0.43 0.32 0.31 0.42 0.48 0.46 0.55 0.62 0.72 0.71 0.72 0.75 0.91 0.99 1.02 1.08 1.24 1.40 1.53 1.67 1.69 1.68 1.68 1.70 1.79 1.72 1.69 1.81 1.97 1.98 1.95 1.85 1.86 1.91 1.99 2.02 1.97 2.02 1.73 1.68 1.74 1.78 1.77 1.89 1.92 1.80
0.48 0.45 0.48 0.47 0.44 0.38 0.36 0.43 0.60 0.56 0.66 0.66 0.68 0.69 0.83 0.95 1.00 1.05 1.09 1.16 1.32 1.43 1.54 1.59 1.64 1.72 1.76 1.82 1.85 1.87 1.92 1.97 2.04 1.98 1.92 1.85 1.89 1.95 1.95 2.01 1.89 1.74 1.77 1.82 1.83 1.81 1.91 1.88 1.82
0.54 0.48 0.49 0.42 0.38 0.44 0.44 0.41 0.66 0.67 0.72 0.76 0.71 0.76 0.90 1.04 1.11 1.15 1.16 1.16 1.20 1.33 1.42 1.44 1.51 1.62 1.74 1.84 1.84 1.80 1.95 2.05 1.98 1.98 1.96 1.93 1.89 1.89 1.86 1.90 1.88 1.89 1.83 1.88 1.85 1.84 1.92 1.90 1.89

GFSSGP_prec_pwat_234.txt.gz
Precipitable_Water
2.08 2.06 2.07 1.72 1.16 1.15 1.08 1.06 1.24 1.14 1.19 1.40 1.39 1.31 1.21 1.21 0.92 0.86 1.66 1.67 1.66 1.72 1.89 1.90 1.91 1.90 1.81 1.75 1.82 1.85 1.83 1.84 1.80 1.77 1.71 1.69 1.65 1.64 1.64 1.66 1.68 1.68 1.67 1.74 1.76 1.78 1.78 1.83 1.87
2.09 2.02 1.79 1.41 0.98 0.89 1.04 1.23 1.10 1.15 1.29 1.50 1.45 1.45 1.35 1.17 1.44 1.52 1.46 1.70 1.71 1.73 1.88 1.87 1.85 1.82 1.76 1.69 1.74 1.83 1.84 1.82 1.79 1.75 1.72 1.70 1.66 1.65 1.62 1.64 1.65 1.66 1.69 1.74 1.77 1.80 1.85 1.85 1.87
1.95 2.03 1.40 1.10 0.97 0.80 0.89 1.07 1.18 1.24 1.47 1.42 1.35 1.49 1.38 1.19 1.34 1.51 1.63 1.74 1.76 1.76 1.86 1.86 1.80 1.78 1.72 1.68 1.68 1.75 1.79 1.81 1.82 1.76 1.71 1.64 1.63 1.65 1.64 1.69 1.71 1.68 1.69 1.74 1.79 1.83 1.91 1.91 1.92
1.58 1.62 1.41 0.90 0.80 0.95 1.02 1.05 1.27 1.22 1.29 1.40 1.39 1.21 1.48 1.56 1.49 1.65 1.74 1.76 1.73 1.78 1.89 1.86 1.79 1.75 1.72 1.70 1.69 1.76 1.80 1.82 1.82 1.77 1.71 1.63 1.67 1.68 1.67 1.66 1.70 1.70 1.72 1.79 1.90 1.95 1.96 1.92 1.93
1.48 1.34 0.91 0.82 0.79 0.99 1.12 1.17 1.26 1.18 1.18 1.30 1.30 1.19 1.31 1.60 1.67 1.74 1.70 1.73 1.68 1.77 1.88 1.89 1.78 1.74 1.74 1.75 1.75 1.74 1.78 1.84 1.82 1.80 1.79 1.74 1.81 1.84 1.78 1.71 1.77 1.71 1.71 1.76 1.82 1.90 1.98 1.98 1.97
1.06 1.19 0.73 0.60 0.71 0.93 1.11 1.14 1.06 1.02 1.16 1.22 1.15 1.20 1.34 1.78 1.65 1.70 1.65 1.67 1.75 1.71 1.88 1.97 1.83 1.76 1.79 1.76 1.78 1.77 1.80 1.83 1.83 1.82 1.83 1.92 2.01 1.97 1.93 1.89 1.85 1.89 1.91 1.84 1.82 1.88 1.98 1.97 2.04
0.86 0.83 0.74 0.66 0.65 0.72 0.90 1.18 1.08 1.02 1.03 1.11 1.31 1.07 1.39 1.66 1.79 1.68 1.62 1.70 1.73 1.75 1.78 1.95 1.98 1.84 1.82 1.80 1.77 1.82 1.83 1.84 1.88 1.99 2.12 2.12 2.05 2.02 1.98 2.06 1.99 1.96 1.93 1.95 1.87 1.87 1.89 1.97 2.01
0.85 0.83 0.65 0.60 0.49 0.53 1.01 1.18 1.25 1.09 0.99 1.34 1.41 1.10 1.17 1.57 1.76 1.72 1.66 1.67 1.72 1.75 1.78 1.88 1.97 1.90 1.86 1.89 1.87 1.91 1.93 1.93 2.02 2.09 2.12 2.10 2.04 2.02 2.06 2.00 1.96 1.98 2.01 1.99 1.84 1.81 1.83 1.85 1.86
0.85 0.53 0.50 0.43 0.45 0.52 0.96 0.85 1.13 1.25 1.10 1.22 1.35 1.35 1.46 1.70 1.75 1.60 1.52 1.58 1.66 1.74 1.79 1.84 1.92 2.05 1.96 1.94 1.97 2.00 2.00 1.98 2.03 2.18 2.12 2.09 2.02 2.05 2.07 1.99 1.99 2.02 2.04 1.95 1.89 1.89 1.86 1.82 1.82
0.60 0.52 0.51 0.53 0.56 0.60 0.83 0.84 0.96 1.01 1.01 1.07 1.12 1.35 1.53 1.61 1.65 1.47 1.36 1.37 1.50 1.59 1.72 1.80 1.84 1.95 2.02 2.02 2.06 2.06 2.01 1.97 2.03 2.10 2.18 2.09 2.01 1.96 2.06 2.12 2.14 2.09 2.11 2.03 1.87 1.86 1.89 1.89 1.78
0.59 0.46 0.54 0.59 0.63 0.62 0.70 0.75 0.93 0.89 0.87 1.02 1.02 1.14 1.42 1.51 1.54 1.46 1.38 1.39 1.48 1.65 1.72 1.78 1.78 1.87 1.94 1.98 2.02 2.05 2.03 2.00 1.93 2.01 2.09 2.02 1.96 2.03 2.04 2.16 2.21 2.16 2.21 2.02 1.86 1.78 1.87 1.87 1.71
0.50 0.60 0.57 0.59 0.65 0.64 0.65 0.82 0.74 0.83 0.93 1.16 1.23 1.31 1.38 1.36 1.41 1.40 1.43 1.47 1.52 1.61 1.70 1.81 1.83 1.82 1.91 1.94 1.94 1.92 1.93 1.95 1.86 2.00 2.00 1.89 1.89 2.03 2.12 2.11 2.12 2.13 2.14 2.06 1.90 1.77 1.76 1.81 1.74
0.52 0.49 0.55 0.60 0.60 0.64 0.70 0.73 0.77 0.78 0.95 1.12 1.20 1.27 1.33 1.38 1.40 1.53 1.66 1.72 1.73 1.61 1.69 1.74 1.78 1.77 1.82 1.82 1.84 1.87 1.95 2.00 1.92 1.87 1.85 1.82 1.91 2.01 2.21 2.14 2.09 2.09 2.09 2.09 2.03 1.84 1.71 1.68 1.65
0.50 0.51 0.50 0.54 0.56 0.60 0.61 0.71 0.82 0.79 1.00 1.03 1.07 1.14 1.29 1.47 1.46 1.51 1.55 1.64 1.74 1.76 1.73 1.73 1.74 1.77 1.79 1.77 1.88 1.94 2.02 2.01 1.96 1.80 1.77 1.85 1.87 2.01 2.11 2.10 2.12 2.10 2.16 2.16 2.13 1.97 1.78 1.68 1.66
0.54 0.49 0.53 0.53 0.54 0.53 0.62 0.57 0.64 0.80 0.94 1.00 1.07 1.18 1.31 1.41 1.54 1.52 1.59 1.54 1.65 1.69 1.84 1.82 1.73 1.75 1.74 1.80 1.98 2.01 1.95 1.98 1.91 2.00 1.90 1.88 1.86 1.84 2.08 2.12 2.10 2.16 2.18 2.15 2.15 2.11 2.04 1.79 1.70
0.47 0.49 0.40 0.49 0.53 0.54 0.56 0.41 0.60 0.81 0.89 0.97 1.06 1.17 1.30 1.40 1.51 1.66 1.74 1.79 1.81 1.78 1.76 1.83 1.77 1.74 1.78 1.84 1.98 2.03 2.01 1.99 1.99 2.05 2.05 1.91 1.82 1.80 1.97 2.07 2.12 2.25 2.14 2.11 2.05 2.05 1.99 1.93 1.74
0.41 0.34 0.36 0.37 0.48 0.54 0.53 0.45 0.66 0.83 0.92 0.99 1.06 1.16 1.25 1.36 1.51 1.65 1.74 1.80 1.90 1.84 1.79 1.80 1.79 1.73 1.76 1.83 1.95 2.01 1.99 1.98 1.98 2.06 2.08 2.03 1.88 1.76 1.83 2.00 2.02 2.07 2.06 2.04 2.00 1.97 1.98 1.89 1.89
0.31 0.31 0.33 0.32 0.39 0.49 0.48 0.49 0.69 0.80 0.91 0.92 1.03 1.15 1.21 1.27 1.38 1.63 1.70 1.75 1.85 1.92 1.86 1.84 1.82 1.85 1.78 1.81 1.89 1.97 2.01 1.96 1.96 1.95 2.05 2.06 1.96 1.85 1.73 1.80 1.97 1.92 2.00 1.91 1.90 1.92 2.03 1.97 1.89
0.30 0.30 0.31 0.35 0.40 0.41 0.43 0.48 0.60 0.76 0.83 0.87 0.90 0.93 1.03 1.13 1.34 1.59 1.66 1.69 1.75 1.83 1.84 1.85 1.76 1.84 1.82 1.73 1.71 1.81 1.80 1.82 1.85 1.90 1.95 2.04 2.05 1.92 1.81 1.80 1.83 1.85 1.91 1.96 1.97 1.85 1.87 1.88 1.99
0.30 0.29 0.30 0.33 0.39 0.41 0.46 0.48 0.64 0.72 0.78 0.89 0.88 0.85 0.98 1.13 1.25 1.36 1.48 1.57 1.65 1.71 1.80 1.82 1.80 1.81 1.80 1.76 1.77 1.82 1.83 1.79 1.82 1.91 1.95 2.01 2.07 2.06 1.96 1.81 1.76 1.81 1.82 1.94 2.01 1.89 1.73 1.84 2.06
0.29 0.27 0.27 0.29 0.36 0.50 0.46 0.45 0.56 0.69 0.91 1.01 1.04 1.05 1.08 1.13 1.16 1.23 1.34 1.48 1.64 1.68 1.76 1.80 1.82 1.82 1.93 1.85 1.83 1.84 1.81 1.77 1.74 1.82 1.88 1.97 2.10 2.15 2.07 1.99 1.75 1.80 1.79 1.85 1.89 1.93 1.83 1.64 1.95
0.25 0.29 0.30 0.34 0.36 0.33 0.45 0.31 0.52 0.67 0.80 0.90 1.01 1.06 1.08 1.13 1.15 1.27 1.35 1.41 1.53 1.66 1.81 1.89 1.98 1.97 2.06 1.94 1.80 1.76 1.63 1.47 1.61 1.72 1.85 1.91 2.08 2.07 2.09 2.08 1.96 1.88 1.74 1.61 1.75 1.89 1.85 1.74 1.64
0.25 0.29 0.32 0.36 0.36 0.39 0.43 0.42 0.52 0.67 0.68 0.78 0.90 1.04 1.10 1.13 1.10 1.17 1.34 1.43 1.48 1.53 1.66 1.86 2.03 2.06 2.19 2.08 1.94 1.83 1.71 1.69 1.70 1.73 1.78 1.90 1.97 2.04 2.08 2.09 2.06 2.00 1.86 1.61 1.61 1.69 1.87 1.82 1.77
0.31 0.28 0.32 0.37 0.38 0.33 0.47 0.46 0.46 0.57 0.66 0.75 0.87 0.94 1.07 1.09 1.10 1.10 1.24 1.49 1.54 1.62 1.71 1.87 1.91 2.02 2.25 2.23 2.14 1.94 1.77 1.72 1.72 1.75 1.76 1.84 1.88 1.95 2.01 2.08 2.05 2.06 1.95 1.66 1.56 1.59 1.78 1.82 1.79
0.32 0.26 0.26 0.26 0.29 0.31 0.48 0.45 0.47 0.65 0.75 0.78 0.82 0.92 1.02 1.08 1.09 1.10 1.14 1.30 1.47 1.55 1.70 1.86 1.97 1.97 2.00 2.12 1.94 1.99 1.90 1.83 1.79 1.85 1.90 1.85 1.83 1.86 1.93 2.02 1.98 1.99 1.98 1.96 1.63 1.56 1.61 1.80 1.78
0.30 0.32 0.28 0.23 0.25 0.30 0.45 0.37 0.43 0.66 0.77 0.81 0.88 0.94 0.99 1.02 1.05 1.09 1.15 1.23 1.35 1.48 1.68 1.81 1.95 1.90 2.06 1.95 1.92 1.96 1.96 1.88 1.87 1.89 1.90 1.88 1.88 1.91 1.95 1.98 2.03 2.02 1.99 1.96 1.66 1.62 1.68 1.84 1.80
0.35 0.32 0.41 0.36 0.38 0.32 0.42 0.51 0.58 0.66 0.66 0.71 0.76 0.77 0.92 0.99 1.02 1.07 1.12 1.20 1.33 1.43 1.63 1.68 1.75 1.81 1.97 2.02 2.01 2.06 1.98 2.00 1.95 1.95 1.88 1.92 1.94 1.93 1.95 1.96 2.02 2.06 2.05 1.97 1.65 1.59 1.72 1.77 1.83
0.41 0.45 0.38 0.40 0.32 0.30 0.39 0.45 0.44 0.50 0.55 0.65 0.70 0.73 0.87 0.96 0.98 1.08 1.10 1.15 1.29 1.40 1.57 1.67 1.73 1.75 1.81 1.79 1.88 1.87 1.86 1.79 1.90 1.97 1.92 1.93 1.92 1.93 1.94 1.96 2.02 2.04 2.08 2.02 1.67 1.62 1.72 1.77 1.91
0.48 0.44 0.46 0.47 0.44 0.35 0.31 0.38 0.57 0.57 0.59 0.62 0.67 0.74 0.87 0.96 0.96 1.02 1.15 1.16 1.23 1.38 1.47 1.56 1.63 1.65 1.69 1.77 1.74 1.75 1.73 1.77 1.83 1.87 1.98 1.91 1.92 1.93 1.94 1.99 2.02 2.01 2.03 1.83 1.62 1.68 1.78 1.80 1.88
0.52 0.48 0.47 0.39 0.39 0.44 0.41 0.37 0.61 0.65 0.65 0.71 0.70 0.77 0.93 1.08 1.04 1.07 1.16 1.22 1.24 1.28 1.38 1.44 1.53 1.58 1.64 1.72 1.78 1.74 1.78 1.82 1.78 1.86 1.98 2.00 1.94 1.98 1.93 1.99 2.01 1.99 1.91 1.78 1.73 1.77 1.88 1.84 1.88

GFSSGP_prec_pwat_237.txt.gz
Precipitable_Water
2.14 2.16 2.06 1.73 1.15 1.18 0.99 0.99 1.18 1.08 1.17 1.46 1.38 1.29 1.23 1.26 0.98 0.86 1.67 1.63 1.70 1.84 1.94 1.95 1.91 1.86 1.85 1.88 1.87 1.87 1.87 1.84 1.84 1.81 1.78 1.72 1.67 1.67 1.63 1.65 1.70 1.76 1.82 1.84 1.81 1.82 1.85 1.83 1.79
2.06 2.06 1.82 1.41 1.01 0.89 0.90 1.10 1.08 1.19 1.32 1.46 1.39 1.39 1.35 1.18 1.48 1.52 1.51 1.64 1.70 1.83 1.92 1.92 1.88 1.82 1.82 1.79 1.86 1.90 1.86 1.85 1.84 1.81 1.77 1.75 1.69 1.68 1.65 1.65 1.68 1.72 1.73 1.76 1.79 1.80 1.86 1.96 1.89
1.90 1.97 1.34 1.07 0.94 0.78 0.84 1.06 1.17 1.27 1.38 1.35 1.32 1.47 1.38 1.18 1.40 1.48 1.65 1.64 1.72 1.81 1.88 1.89 1.87 1.78 1.74 1.77 1.79 1.85 1.86 1.86 1.88 1.84 1.78 1.78 1.76 1.73 1.69 1.66 1.71 1.73 1.71 1.74 1.82 1.92 1.96 1.99 1.94
1.64 1.58 1.32 0.88 0.80 0.95 1.01 1.01 1.18 1.23 1.32 1.40 1.36 1.21 1.45 1.54 1.46 1.64 1.69 1.68 1.68 1.76 1.84 1.89 1.82 1.76 1.70 1.73 1.77 1.84 1.83 1.84 1.87 1.85 1.79 1.78 1.75 1.75 1.76 1.76 1.78 1.82 1.80 1.77 1.84 1.96 1.96 1.92 1.90
1.54 1.25 0.80 0.72 0.75 0.91 1.03 1.01 1.11 1.12 1.17 1.24 1.23 1.13 1.20 1.63 1.75 1.68 1.65 1.70 1.64 1.72 1.80 1.86 1.79 1.74 1.71 1.69 1.75 1.80 1.82 1.85 1.86 1.87 1.83 1.82 1.80 1.76 1.75 1.71 1.77 1.81 1.74 1.81 1.90 2.03 2.08 1.99 1.93
1.07 1.11 0.66 0.54 0.60 0.79 0.99 1.09 1.08 1.05 1.15 1.19 1.14 1.11 1.25 1.69 1.63 1.66 1.68 1.69 1.76 1.71 1.79 1.81 1.77 1.74 1.72 1.70 1.73 1.81 1.84 1.83 1.84 1.85 1.82 1.83 1.86 1.93 1.95 1.91 1.85 1.85 1.80 1.82 1.81 1.89 1.98 2.02 2.02
0.86 0.79 0.56 0.54 0.59 0.77 0.94 1.19 1.09 1.01 1.03 1.08 1.27 1.10 1.36 1.59 1.73 1.67 1.65 1.73 1.77 1.83 1.80 1.78 1.79 1.79 1.74 1.74 1.75 1.80 1.82 1.82 1.83 1.86 1.88 1.92 2.02 2.06 2.03 2.00 1.98 1.96 2.04 1.94 1.96 1.90 1.97 2.03 2.03
0.85 0.69 0.51 0.54 0.52 0.64 0.98 1.12 1.22 1.06 1.01 1.33 1.39 1.10 1.11 1.55 1.72 1.66 1.64 1.69 1.75 1.81 1.90 1.83 1.79 1.79 1.78 1.75 1.79 1.82 1.82 1.82 1.84 1.93 2.13 2.21 2.11 2.07 2.09 2.11 2.05 2.00 1.98 2.00 2.00 1.87 1.85 1.95 2.00
0.84 0.51 0.40 0.44 0.47 0.53 0.91 0.85 1.07 1.20 1.09 1.21 1.28 1.32 1.41 1.68 1.67 1.56 1.51 1.55 1.63 1.72 1.76 1.91 1.86 1.81 1.80 1.83 1.85 1.88 1.86 1.85 1.94 2.11 2.22 2.14 2.08 2.09 2.18 2.14 2.01 1.97 2.08 2.02 1.92 1.84 1.81 1.79 1.84
0.62 0.53 0.46 0.55 0.54 0.57 0.78 0.84 0.92 1.00 1.04 1.12 1.11 1.32 1.50 1.57 1.52 1.40 1.34 1.34 1.46 1.54 1.65 1.82 1.87 1.84 1.85 1.86 1.93 1.99 2.01 1.97 2.02 2.20 2.23 2.17 2.10 2.08 2.05 2.13 2.06 2.11 2.12 2.10 1.91 1.93 1.92 1.88 1.84
0.59 0.48 0.55 0.57 0.60 0.62 0.72 0.80 0.94 0.88 0.85 1.03 0.99 1.21 1.36 1.43 1.43 1.39 1.36 1.36 1.40 1.55 1.64 1.72 1.81 1.94 1.95 1.87 1.94 2.03 2.06 2.05 2.02 2.11 2.13 2.14 2.08 2.02 2.04 2.12 2.20 2.15 2.11 2.12 1.92 1.87 1.92 1.92 1.83
0.49 0.57 0.57 0.58 0.63 0.62 0.67 0.82 0.79 0.86 0.91 1.14 1.19 1.33 1.38 1.39 1.35 1.32 1.33 1.38 1.44 1.57 1.64 1.73 1.78 1.82 1.96 1.98 1.98 2.05 2.04 2.05 1.93 2.08 2.02 2.00 1.96 1.97 2.06 2.12 2.16 2.15 2.19 2.09 1.98 1.86 1.83 1.87 1.85
0.48 0.49 0.51 0.54 0.57 0.61 0.72 0.71 0.76 0.79 1.01 1.19 1.27 1.30 1.34 1.44 1.45 1.48 1.48 1.54 1.60 1.58 1.67 1.75 1.80 1.80 1.88 1.95 1.99 1.99 1.98 2.02 1.95 1.91 1.90 1.84 1.84 1.92 2.07 2.16 2.16 2.12 2.13 2.14 2.06 1.90 1.78 1.77 1.78
0.52 0.50 0.50 0.52 0.52 0.58 0.59 0.66 0.76 0.79 0.96 1.04 1.16 1.18 1.31 1.41 1.48 1.58 1.59 1.59 1.67 1.72 1.74 1.78 1.76 1.78 1.88 1.88 1.92 1.93 1.97 2.01 2.00 1.84 1.82 1.85 1.84 1.97 2.15 2.14 2.14 2.12 2.15 2.17 2.12 2.02 1.84 1.77 1.72
0.55 0.48 0.50 0.52 0.53 0.52 0.62 0.50 0.58 0.79 0.91 0.91 1.05 1.16 1.29 1.43 1.50 1.49 1.60 1.64 1.71 1.71 1.81 1.77 1.78 1.80 1.79 1.81 1.90 1.97 1.98 2.01 1.93 1.94 1.94 1.91 1.90 1.89 2.06 2.14 2.13 2.16 2.19 2.19 2.16 2.13 2.05 1.84 1.80
0.46 0.47 0.38 0.44 0.48 0.54 0.56 0.39 0.58 0.82 0.84 0.82 1.01 1.12 1.24 1.39 1.49 1.57 1.64 1.70 1.80 1.82 1.81 1.98 1.99 1.84 1.76 1.79 1.89 2.00 1.98 2.04 1.99 2.02 2.06 1.95 1.88 1.86 1.92 2.07 2.10 2.23 2.20 2.16 2.09 2.08 2.08 2.02 1.87
0.42 0.33 0.34 0.34 0.42 0.50 0.51 0.42 0.61 0.80 0.83 0.85 0.99 1.07 1.18 1.32 1.45 1.61 1.69 1.74 1.85 1.88 1.89 1.92 1.88 1.82 1.78 1.84 1.90 1.99 2.04 2.02 2.01 2.04 2.06 2.11 1.96 1.85 1.81 1.98 2.04 2.09 2.08 2.09 2.06 2.03 2.00 1.97 2.00
0.31 0.32 0.34 0.32 0.37 0.39 0.42 0.44 0.59 0.78 0.85 0.91 1.02 1.03 1.09 1.21 1.30 1.57 1.76 1.80 1.86 1.92 1.95 1.90 1.96 1.84 1.85 1.82 1.87 1.95 1.99 2.06 2.05 2.00 2.03 2.11 2.07 1.98 1.81 1.86 1.94 1.98 1.99 1.95 1.96 1.95 2.05 2.03 1.98
0.34 0.31 0.32 0.34 0.37 0.38 0.41 0.44 0.57 0.76 0.85 0.87 0.96 0.95 1.03 1.14 1.38 1.52 1.66 1.80 1.82 1.90 1.94 1.90 1.86 1.90 1.87 1.79 1.74 1.79 1.79 1.95 1.95 1.97 1.99 2.03 2.09 2.06 1.87 1.78 1.86 1.93 1.89 2.02 1.98 1.92 1.87 1.97 2.02
0.30 0.29 0.30 0.34 0.38 0.41 0.45 0.44 0.59 0.70 0.78 0.86 0.94 0.95 0.95 0.99 1.16 1.34 1.53 1.74 1.80 1.78 1.86 1.88 1.90 1.93 1.85 1.91 1.85 1.84 1.90 1.96 1.93 1.96 1.98 2.00 2.05 2.10 2.03 1.86 1.82 1.86 1.81 1.97 2.04 2.04 1.80 1.84 1.97
0.29 0.28 0.30 0.30 0.36 0.49 0.47 0.43 0.53 0.67 0.81 0.94 1.06 1.11 1.12 1.11 1.14 1.26 1.40 1.57 1.74 1.74 1.81 1.90 1.92 1.97 1.96 1.93 1.96 1.91 1.96 1.96 1.84 1.80 1.86 1.95 2.04 2.10 2.14 2.12 1.97 1.87 1.84 1.77 1.88 1.95 1.90 1.80 1.85
0.26 0.31 0.31 0.33 0.35 0.33 0.49 0.35 0.50 0.63 0.71 0.87 0.98 1.05 1.15 1.13 1.14 1.21 1.34 1.42 1.52 1.61 1.81 1.89 1.95 2.00 2.06 2.11 2.02 1.88 1.77 1.70 1.75 1.79 1.86 1.96 2.05 2.07 2.16 2.15 2.11 1.93 1.87 1.80 1.78 1.89 1.92 1.86 1.66
0.28 0.31 0.31 0.36 0.36 0.40 0.48 0.45 0.51 0.64 0.63 0.75 0.83 0.93 1.03 1.13 1.15 1.12 1.20 1.45 1.55 1.63 1.70 1.80 1.92 1.99 2.08 2.12 2.05 1.92 1.89 1.87 1.86 1.83 1.81 1.91 1.98 2.07 2.11 2.13 2.13 2.08 2.01 1.94 1.75 1.63 1.73 1.78 1.79
0.36 0.29 0.29 0.35 0.38 0.34 0.45 0.45 0.44 0.52 0.61 0.68 0.78 0.86 0.98 1.06 1.10 1.16 1.18 1.36 1.55 1.62 1.65 1.73 1.82 1.92 2.12 2.16 2.09 2.04 1.85 1.93 1.81 1.77 1.76 1.80 1.94 2.01 2.06 2.08 2.11 2.11 2.10 2.02 1.85 1.65 1.60 1.81 1.81
0.33 0.27 0.23 0.27 0.29 0.32 0.46 0.43 0.44 0.55 0.66 0.72 0.74 0.85 0.93 1.03 1.00 1.06 1.14 1.25 1.44 1.55 1.62 1.72 1.81 1.90 2.03 2.08 2.11 1.97 1.91 1.95 1.86 1.78 1.80 1.82 1.90 1.94 1.98 2.04 2.04 2.07 2.07 2.05 1.99 1.69 1.58 1.59 1.66
0.32 0.29 0.26 0.24 0.26 0.29 0.43 0.36 0.45 0.63 0.73 0.80 0.80 0.85 0.95 1.08 1.01 1.02 1.08 1.16 1.31 1.43 1.57 1.73 1.79 1.83 1.97 2.07 2.07 2.03 1.91 2.02 1.94 1.89 1.92 1.98 2.01 1.98 2.06 2.06 2.08 2.05 2.07 2.05 2.02 1.96 1.64 1.64 1.69
0.36 0.31 0.38 0.36 0.38 0.33 0.39 0.49 0.60 0.69 0.69 0.73 0.72 0.77 0.91 0.93 0.98 1.04 1.08 1.12 1.22 1.34 1.50 1.69 1.77 1.80 1.90 2.01 2.10 1.97 1.97 2.00 2.00 1.95 2.05 2.03 2.04 2.01 2.03 2.08 2.05 2.04 2.07 2.05 2.02 1.97 1.66 1.66 1.76
0.40 0.43 0.38 0.39 0.30 0.30 0.38 0.43 0.45 0.54 0.59 0.67 0.69 0.73 0.87 0.97 1.00 1.06 1.09 1.13 1.27 1.36 1.51 1.60 1.67 1.73 1.87 2.02 2.00 1.95 2.04 2.16 2.07 1.99 1.98 2.03 2.02 2.07 2.02 1.98 2.01 2.01 2.06 2.08 2.10 2.04 1.75 1.64 1.76
0.45 0.45 0.45 0.45 0.43 0.36 0.35 0.39 0.56 0.55 0.63 0.65 0.70 0.78 0.96 1.05 1.05 1.09 1.14 1.20 1.30 1.39 1.42 1.51 1.60 1.72 1.84 1.91 1.93 1.98 2.00 1.97 1.91 1.90 1.94 1.94 2.01 2.07 2.04 1.98 1.98 1.99 2.04 2.10 2.09 2.06 1.81 1.63 1.69
0.54 0.47 0.47 0.38 0.36 0.39 0.40 0.38 0.58 0.62 0.69 0.73 0.75 0.89 1.05 1.15 1.17 1.15 1.22 1.23 1.24 1.31 1.39 1.47 1.58 1.61 1.68 1.80 1.87 1.85 1.86 1.84 1.80 1.82 1.85 1.95 2.01 2.06 2.03 2.03 1.98 2.01 2.04 2.08 2.02 1.90 1.66 1.58 1.69

GFSSGP_prec_pwat_240.txt.gz
Precipitable_Water
2.13 2.22 2.07 1.80 1.25 1.16 0.95 0.98 1.17 1.09 1.20 1.36 1.32 1.31 1.23 1.23 1.05 0.98 1.61 1.61 1.80 1.82 1.88 1.86 1.87 1.91 1.91 1.87 1.84 1.80 1.75 1.74 1.78 1.80 1.73 1.69 1.67 1.70 1.74 1.75 1.79 1.84 1.85 1.86 1.85 1.85 1.81 1.83 1.86
2.08 2.03 1.82 1.48 1.06 0.87 0.89 1.08 1.08 1.21 1.31 1.41 1.35 1.39 1.34 1.22 1.46 1.52 1.44 1.60 1.81 1.86 1.87 1.85 1.83 1.88 1.87 1.86 1.84 1.81 1.81 1.81 1.84 1.82 1.78 1.73 1.69 1.69 1.67 1.67 1.73 1.75 1.82 1.83 1.82 1.88 1.90 1.81 1.75
1.82 1.87 1.34 1.10 0.94 0.78 0.82 1.02 1.12 1.23 1.33 1.35 1.31 1.44 1.29 1.19 1.38 1.52 1.61 1.62 1.79 1.85 1.89 1.90 1.81 1.82 1.82 1.85 1.86 1.84 1.86 1.90 1.87 1.84 1.80 1.80 1.75 1.72 1.67 1.66 1.70 1.71 1.76 1.83 1.88 1.88 1.93 2.04 2.02
1.59 1.53 1.32 0.90 0.78 0.83 0.88 0.99 1.13 1.20 1.29 1.34 1.32 1.20 1.44 1.49 1.42 1.62 1.62 1.64 1.71 1.82 1.92 1.96 1.84 1.81 1.78 1.76 1.86 1.92 1.90 1.90 1.89 1.87 1.86 1.88 1.81 1.78 1.73 1.73 1.77 1.72 1.73 1.80 1.83 1.96 1.99 2.01 1.94
1.47 1.26 0.83 0.70 0.69 0.84 0.93 1.02 1.09 1.11 1.18 1.20 1.20 1.09 1.21 1.61 1.72 1.65 1.58 1.65 1.68 1.76 1.90 1.92 1.87 1.76 1.74 1.75 1.77 1.86 1.93 1.91 1.90 1.93 1.92 1.87 1.84 1.80 1.76 1.77 1.81 1.80 1.77 1.83 1.90 1.97 1.95 1.91 1.88
1.02 1.07 0.58 0.55 0.61 0.87 1.02 1.06 1.06 1.03 1.09 1.16 1.14 1.16 1.25 1.69 1.58 1.56 1.59 1.62 1.73 1.74 1.83 1.89 1.87 1.79 1.71 1.73 1.75 1.79 1.87 1.89 1.90 1.92 1.93 1.88 1.85 1.83 1.82 1.79 1.85 1.87 1.76 1.75 1.87 1.92 1.94 1.96 1.99
0.81 0.82 0.59 0.60 0.68 0.78 0.97 1.13 1.07 1.03 1.03 1.07 1.28 1.11 1.30 1.51 1.61 1.60 1.61 1.65 1.70 1.77 1.79 1.85 1.82 1.78 1.74 1.72 1.74 1.77 1.81 1.88 1.94 1.95 1.96 1.91 1.89 1.93 2.06 2.08 2.07 1.99 2.01 1.99 1.90 1.93 1.90 1.93 2.00
0.80 0.76 0.53 0.58 0.59 0.59 0.96 1.08 1.14 1.07 0.99 1.25 1.32 1.13 1.12 1.48 1.64 1.66 1.63 1.66 1.69 1.74 1.78 1.81 1.79 1.77 1.76 1.77 1.77 1.78 1.79 1.87 1.95 1.99 1.97 1.95 2.11 2.22 2.21 2.13 2.09 2.10 2.09 2.03 2.02 1.96 1.91 1.97 2.01
0.83 0.57 0.42 0.53 0.55 0.63 0.93 0.95 1.10 1.19 1.10 1.17 1.23 1.27 1.40 1.59 1.66 1.54 1.52 1.56 1.65 1.74 1.77 1.78 1.79 1.78 1.77 1.82 1.83 1.84 1.80 1.83 1.93 2.01 2.05 2.26 2.18 2.25 2.23 2.25 2.19 2.10 2.00 2.02 2.06 1.94 1.80 1.82 1.87
0.62 0.58 0.51 0.60 0.59 0.60 0.81 0.89 0.93 1.02 1.05 1.13 1.18 1.38 1.51 1.54 1.51 1.39 1.39 1.40 1.52 1.63 1.78 1.83 1.76 1.75 1.79 1.82 1.85 1.88 1.93 1.89 1.96 2.14 2.15 2.26 2.24 2.21 2.11 2.14 2.06 1.98 2.04 2.06 1.97 1.92 1.87 1.82 1.86
0.57 0.53 0.54 0.60 0.65 0.64 0.68 0.80 0.95 0.92 0.96 1.08 1.10 1.28 1.42 1.39 1.39 1.35 1.40 1.43 1.48 1.63 1.74 1.84 1.89 1.81 1.83 1.84 1.90 1.93 2.01 2.00 2.04 2.19 2.28 2.29 2.28 2.22 2.13 2.04 2.11 2.07 2.10 2.07 2.03 1.94 1.93 1.88 1.86
0.48 0.53 0.54 0.56 0.60 0.60 0.61 0.74 0.81 0.91 0.94 1.11 1.20 1.31 1.39 1.38 1.34 1.33 1.38 1.41 1.45 1.59 1.70 1.79 1.91 1.89 1.90 1.93 1.92 1.98 2.07 2.07 2.08 2.21 2.18 2.15 2.12 2.11 2.05 2.16 2.19 2.23 2.22 2.18 2.02 1.93 1.90 1.94 1.93
0.49 0.49 0.51 0.53 0.53 0.57 0.64 0.65 0.73 0.82 1.02 1.12 1.24 1.28 1.32 1.39 1.45 1.49 1.47 1.50 1.54 1.58 1.69 1.78 1.86 1.87 2.00 2.04 2.00 2.06 2.11 2.09 2.04 2.08 2.00 1.96 1.97 2.03 2.07 2.16 2.24 2.21 2.23 2.20 2.14 1.96 1.84 1.83 1.91
0.50 0.50 0.49 0.51 0.52 0.56 0.59 0.65 0.75 0.83 0.97 1.01 1.14 1.22 1.33 1.42 1.44 1.50 1.54 1.51 1.57 1.68 1.73 1.83 1.86 1.89 1.93 2.00 2.02 2.08 2.08 2.09 2.09 1.96 1.88 1.91 1.90 1.95 2.10 2.21 2.18 2.19 2.19 2.25 2.14 2.11 1.93 1.83 1.81
0.54 0.47 0.49 0.50 0.51 0.52 0.59 0.54 0.62 0.81 0.93 0.99 1.09 1.22 1.30 1.44 1.52 1.51 1.57 1.60 1.71 1.76 1.83 1.84 1.85 1.91 1.89 1.93 1.98 2.04 2.05 2.08 2.05 1.96 2.03 1.97 1.92 1.92 2.05 2.23 2.19 2.22 2.25 2.17 2.17 2.13 2.06 1.90 1.83
0.48 0.46 0.39 0.43 0.45 0.56 0.55 0.44 0.62 0.79 0.90 0.94 1.07 1.20 1.25 1.42 1.56 1.62 1.72 1.74 1.83 1.84 1.82 1.89 1.91 1.95 1.91 1.89 1.93 2.00 2.07 2.04 2.09 2.03 2.13 2.06 1.96 1.91 1.96 2.07 2.17 2.27 2.24 2.26 2.18 2.09 2.14 2.15 1.97
0.41 0.34 0.35 0.37 0.46 0.47 0.49 0.43 0.63 0.80 0.81 0.86 1.05 1.16 1.19 1.35 1.52 1.69 1.77 1.82 1.85 1.93 1.92 1.92 1.96 1.96 1.97 1.91 1.92 1.98 2.05 2.05 2.11 2.10 2.09 2.13 2.12 1.90 1.86 1.97 2.08 2.14 2.13 2.12 2.12 2.09 2.08 2.05 2.09
0.34 0.34 0.35 0.36 0.39 0.38 0.40 0.40 0.58 0.77 0.81 0.92 1.08 1.14 1.19 1.27 1.45 1.65 1.80 1.86 1.90 1.96 2.01 2.01 2.03 2.01 1.96 1.94 1.92 1.92 1.98 2.05 2.12 2.11 2.10 2.13 2.21 2.07 1.93 1.85 1.99 1.99 2.05 1.99 1.97 1.99 2.05 2.01 2.07
0.35 0.35 0.34 0.36 0.38 0.39 0.42 0.44 0.60 0.71 0.80 0.89 1.00 1.08 1.11 1.20 1.42 1.51 1.64 1.83 1.92 1.92 1.95 2.02 1.95 1.98 2.00 1.86 1.76 1.73 1.77 1.93 2.04 2.08 2.08 2.09 2.12 2.20 2.07 1.92 1.93 1.93 1.90 2.04 2.01 1.96 1.88 1.97 2.09
0.32 0.29 0.31 0.34 0.39 0.41 0.44 0.47 0.62 0.67 0.76 0.85 0.94 1.04 1.10 1.08 1.11 1.22 1.43 1.65 1.81 1.90 1.91 1.97 2.01 2.01 2.02 1.95 1.86 1.80 1.85 1.91 2.03 2.15 2.07 2.09 2.10 2.22 2.20 2.02 1.91 1.90 1.85 1.92 2.04 2.05 1.97 1.92 1.97
0.31 0.29 0.30 0.32 0.37 0.48 0.47 0.47 0.56 0.69 0.78 0.93 1.06 1.10 1.16 1.17 1.19 1.20 1.34 1.50 1.69 1.75 1.89 1.91 1.98 2.05 2.07 2.07 1.97 1.93 1.93 1.90 1.91 1.95 1.93 2.03 2.08 2.12 2.17 2.20 2.11 2.00 1.91 1.87 1.89 1.94 1.91 1.86 1.98
0.28 0.33 0.31 0.32 0.35 0.35 0.49 0.44 0.56 0.66 0.71 0.84 0.94 0.97 1.07 1.15 1.23 1.19 1.28 1.44 1.57 1.68 1.82 1.88 1.94 2.03 2.06 2.10 2.07 1.96 1.77 1.65 1.79 1.91 1.94 1.95 2.06 2.10 2.14 2.23 2.28 2.21 2.02 1.85 1.87 1.88 1.95 1.94 1.80
0.34 0.33 0.32 0.34 0.35 0.39 0.51 0.49 0.55 0.62 0.64 0.74 0.81 0.86 1.01 1.11 1.16 1.17 1.16 1.33 1.53 1.64 1.66 1.78 1.92 2.02 2.08 2.15 2.13 2.07 2.01 2.00 1.88 1.88 1.87 1.92 1.97 2.09 2.16 2.17 2.20 2.20 2.11 1.98 1.90 1.87 1.69 1.74 1.70
0.37 0.32 0.29 0.33 0.33 0.35 0.46 0.41 0.55 0.51 0.58 0.69 0.79 0.83 0.95 1.05 1.09 1.14 1.22 1.30 1.46 1.63 1.69 1.77 1.84 1.92 1.99 2.10 2.18 2.15 2.06 2.05 1.91 1.86 1.84 1.86 1.92 2.00 2.05 2.14 2.13 2.19 2.17 2.10 2.12 2.08 1.85 1.52 1.72
0.33 0.28 0.25 0.27 0.32 0.38 0.44 0.43 0.51 0.55 0.66 0.73 0.74 0.79 0.92 1.10 1.03 1.08 1.13 1.23 1.40 1.52 1.58 1.69 1.78 1.84 1.96 2.02 2.11 2.19 2.13 2.05 1.96 1.94 1.89 1.83 1.89 1.89 1.95 2.06 2.11 2.12 2.13 2.14 2.18 2.10 1.98 1.64 1.53
0.39 0.33 0.27 0.27 0.29 0.36 0.41 0.39 0.55 0.65 0.74 0.76 0.77 0.79 0.93 0.97 1.01 1.05 1.13 1.19 1.27 1.39 1.54 1.66 1.73 1.78 1.87 1.92 1.99 2.10 2.20 2.19 2.03 1.94 1.98 1.90 1.92 1.97 2.09 2.07 2.09 2.15 2.10 2.15 2.15 2.14 2.07 1.89 1.60
0.39 0.28 0.36 0.32 0.33 0.29 0.41 0.49 0.68 0.70 0.69 0.71 0.73 0.80 0.87 0.94 1.01 1.04 1.11 1.16 1.26 1.36 1.44 1.60 1.70 1.76 1.84 1.96 2.15 2.17 2.16 2.10 1.94 1.95 2.04 2.02 2.02 2.08 2.18 2.15 2.12 2.13 2.13 2.08 2.13 2.13 2.06 2.02 1.71
0.41 0.43 0.37 0.38 0.34 0.33 0.43 0.45 0.49 0.62 0.61 0.67 0.72 0.78 0.94 1.04 1.09 1.12 1.16 1.20 1.29 1.38 1.47 1.58 1.63 1.62 1.76 1.78 1.93 2.12 2.13 2.10 1.97 2.12 2.03 1.99 2.10 2.14 2.13 2.07 2.08 2.05 2.07 2.07 2.11 2.08 2.10 2.00 1.77
0.42 0.40 0.43 0.44 0.41 0.37 0.37 0.46 0.60 0.61 0.65 0.67 0.75 0.90 1.01 1.05 1.12 1.15 1.19 1.24 1.33 1.38 1.36 1.42 1.53 1.65 1.71 1.78 1.81 1.81 1.82 1.90 2.09 2.03 2.03 2.00 2.06 2.11 2.09 2.08 2.07 2.01 1.99 2.05 2.06 2.05 2.09 2.05 1.92
0.54 0.51 0.47 0.44 0.49 0.44 0.36 0.39 0.69 0.65 0.67 0.71 0.80 1.00 1.13 1.16 1.18 1.23 1.24 1.28 1.33 1.38 1.37 1.36 1.47 1.59 1.71 1.79 1.83 1.81 1.78 1.84 1.83 1.89 1.95 1.97 1.95 2.03 2.08 2.11 2.09 2.02 2.00 2.02 2.06 2.06 2.09 2.03 1.91

GFSSGP_prec_pwat_246.txt.gz
Precipitable_Water
2.07 2.26 2.35 2.05 1.37 1.25 0.95 0.98 1.31 1.10 1.16 1.25 1.45 1.46 1.33 1.26 1.17 0.96 1.61 1.76 1.73 1.65 1.74 1.73 1.64 1.64 1.54 1.51 1.55 1.60 1.63 1.65 1.62 1.62 1.72 1.73 1.72 1.77 1.80 1.80 1.81 1.81 1.82 1.80 1.83 1.93 2.02 1.80 1.71
2.12 2.12 2.08 1.68 1.08 0.90 0.99 1.14 0.98 1.16 1.27 1.36 1.38 1.47 1.49 1.19 1.32 1.29 1.46 1.77 1.74 1.66 1.71 1.77 1.73 1.65 1.61 1.57 1.51 1.53 1.62 1.72 1.62 1.61 1.65 1.70 1.73 1.73 1.73 1.81 1.86 1.92 1.83 1.83 1.75 1.85 1.92 1.90 1.78
2.03 2.00 1.60 1.31 1.02 0.71 0.85 1.13 0.97 1.18 1.29 1.26 1.46 1.35 1.27 1.17 1.32 1.42 1.63 1.71 1.78 1.68 1.73 1.80 1.81 1.74 1.68 1.67 1.67 1.71 1.75 1.79 1.73 1.69 1.69 1.69 1.68 1.68 1.71 1.71 1.76 1.81 1.76 1.81 1.91 1.86 1.76 1.77 1.70
1.73 1.66 1.77 1.11 0.82 0.93 0.91 1.08 1.28 1.15 1.26 1.23 1.30 1.39 1.41 1.45 1.48 1.55 1.67 1.73 1.74 1.73 1.81 1.78 1.81 1.82 1.81 1.83 1.85 1.87 1.85 1.89 1.86 1.80 1.81 1.75 1.74 1.71 1.70 1.74 1.75 1.74 1.82 1.88 1.94 2.03 2.04 2.05 1.88
1.58 1.50 1.03 0.94 0.82 0.92 0.93 0.91 1.07 1.01 1.07 1.04 1.25 1.11 1.26 1.52 1.67 1.62 1.64 1.73 1.69 1.78 1.87 1.72 1.77 1.81 1.83 1.84 1.86 1.88 1.92 1.92 1.95 1.92 1.88 1.88 1.80 1.77 1.74 1.77 1.81 1.80 1.74 1.81 1.87 1.89 1.95 1.99 1.91
1.12 1.21 0.91 0.75 0.88 1.00 1.09 1.11 1.22 0.96 1.15 1.24 1.21 1.14 1.26 1.59 1.51 1.56 1.64 1.70 1.74 1.84 1.87 1.71 1.75 1.77 1.80 1.83 1.87 1.90 1.91 1.93 1.94 1.92 1.95 1.96 1.90 1.86 1.83 1.83 1.83 1.86 1.88 1.90 1.83 1.85 1.88 1.87 1.88
0.94 0.90 0.76 0.84 0.85 0.86 0.90 0.98 1.01 1.17 0.98 1.06 1.50 1.10 1.29 1.39 1.47 1.55 1.66 1.71 1.87 1.95 1.90 1.75 1.71 1.76 1.77 1.75 1.79 1.85 1.92 1.98 1.96 1.94 1.98 1.99 1.98 1.95 1.94 1.94 1.96 2.02 1.93 1.85 1.82 1.85 1.89 1.87 1.87
0.96 0.88 0.61 0.67 0.63 0.72 0.97 0.90 1.05 1.06 0.92 1.39 1.18 1.20 1.06 1.32 1.48 1.53 1.62 1.64 1.82 1.91 1.94 1.77 1.72 1.75 1.73 1.72 1.76 1.77 1.81 1.92 1.99 2.01 2.00 2.03 2.05 2.04 1.99 1.95 2.10 2.05 2.12 2.13 2.03 2.02 1.98 1.95 1.87
0.88 0.76 0.55 0.62 0.70 0.71 0.84 0.99 1.09 1.30 1.21 1.11 1.17 1.30 1.26 1.37 1.48 1.48 1.51 1.58 1.61 1.80 1.84 1.79 1.73 1.75 1.72 1.73 1.76 1.75 1.79 1.86 1.94 2.05 2.09 2.08 1.97 2.13 2.11 2.04 2.09 2.11 2.02 1.99 1.98 1.92 1.89 1.94 1.91
0.82 0.72 0.55 0.69 0.70 0.73 0.78 0.87 1.03 1.06 1.27 1.34 1.18 1.26 1.37 1.37 1.40 1.36 1.41 1.45 1.51 1.62 1.72 1.76 1.77 1.81 1.76 1.81 1.88 1.83 1.77 1.81 1.88 2.04 2.10 2.03 2.19 2.25 2.06 2.04 1.98 1.97 2.02 1.92 1.92 1.93 1.85 1.76 1.76
0.76 0.59 0.61 0.62 0.63 0.68 0.74 0.86 1.04 0.88 0.86 0.99 1.15 1.16 1.30 1.35 1.40 1.36 1.39 1.45 1.51 1.59 1.72 1.77 1.75 1.81 1.77 1.86 1.96 1.96 1.86 1.91 1.93 2.10 2.09 2.08 2.13 2.34 2.32 2.23 2.12 2.00 2.03 1.98 1.95 1.90 1.92 1.82 1.83
0.55 0.50 0.54 0.55 0.54 0.55 0.60 0.69 0.80 0.85 0.86 0.89 1.34 1.32 1.34 1.35 1.35 1.37 1.42 1.50 1.51 1.57 1.68 1.79 1.77 1.80 1.76 1.83 1.93 1.94 1.89 1.98 2.01 2.19 2.22 2.19 2.04 2.28 2.29 2.27 2.26 2.24 2.20 2.06 1.93 1.96 1.97 1.94 1.99
0.49 0.56 0.51 0.52 0.54 0.55 0.59 0.68 0.60 0.79 0.95 0.98 1.34 1.36 1.35 1.40 1.38 1.40 1.45 1.58 1.56 1.55 1.71 1.83 1.84 1.83 1.74 1.80 1.90 1.94 1.99 2.00 2.16 2.09 2.22 2.59 1.98 2.11 2.25 2.16 2.17 2.29 2.31 2.22 2.13 2.05 1.93 1.88 1.93
0.60 0.51 0.52 0.52 0.56 0.60 0.50 0.62 0.66 0.97 0.86 0.95 1.20 1.33 1.41 1.31 1.37 1.42 1.41 1.45 1.53 1.59 1.64 1.77 1.86 1.90 1.89 1.72 1.96 2.01 2.05 2.39 2.05 2.01 1.98 1.94 2.13 2.06 2.07 2.22 2.10 2.13 2.24 2.26 2.18 2.02 2.03 1.85 1.83
0.49 0.46 0.53 0.53 0.52 0.48 0.50 0.66 0.74 0.79 0.82 1.02 1.13 1.20 1.47 1.41 1.46 1.34 1.43 1.50 1.57 1.61 1.70 1.73 1.83 2.12 1.94 1.83 1.85 2.01 2.00 2.02 2.19 2.00 2.12 1.94 1.96 1.96 2.02 2.16 2.09 2.18 2.25 2.26 2.20 2.06 2.15 2.00 1.90
0.43 0.52 0.52 0.57 0.41 0.53 0.52 0.58 0.82 0.68 0.72 0.86 1.14 1.18 1.29 1.37 1.35 1.64 1.54 1.53 1.59 1.62 1.69 1.78 1.83 1.83 1.98 1.86 1.87 1.88 1.89 2.01 2.13 2.05 1.97 2.04 2.08 1.99 1.98 2.11 2.03 2.20 2.24 2.20 2.23 2.22 2.07 2.13 2.03
0.50 0.45 0.46 0.42 0.50 0.37 0.46 0.50 0.82 0.77 0.70 0.81 1.03 1.16 1.19 1.40 1.46 1.42 1.47 1.58 1.56 1.74 1.77 1.79 1.85 1.85 1.92 2.00 1.96 1.96 1.95 2.00 2.03 2.03 2.00 2.04 2.06 2.28 2.01 1.93 2.05 2.19 2.13 2.23 2.16 2.16 2.18 2.14 2.13
0.53 0.48 0.44 0.39 0.47 0.39 0.41 0.59 0.83 0.85 0.64 0.90 1.04 1.17 1.42 1.39 1.48 1.52 1.55 1.54 1.70 1.79 1.74 1.78 1.89 1.92 2.03 2.01 1.98 1.99 1.86 1.92 2.00 1.99 1.98 2.05 2.14 2.27 2.30 2.02 1.92 2.15 2.09 2.19 2.18 2.03 2.17 2.10 2.04
0.56 0.44 0.34 0.41 0.43 0.31 0.42 0.48 0.67 0.77 0.73 0.85 1.01 1.13 1.31 1.44 1.41 1.50 1.69 1.71 1.63 1.93 1.90 1.97 1.83 1.96 1.96 1.94 1.96 1.89 1.76 1.82 1.87 1.95 2.00 2.04 2.16 2.04 2.25 2.25 2.06 2.00 1.80 2.00 2.03 2.06 2.05 2.05 2.11
0.35 0.33 0.33 0.40 0.42 0.35 0.42 0.50 0.74 0.75 0.80 0.89 0.88 0.99 1.07 1.08 1.23 1.46 1.50 1.57 1.76 1.74 1.81 1.93 1.95 1.99 2.00 2.00 2.01 2.03 1.96 1.85 1.85 1.88 1.98 2.04 2.08 2.12 2.18 2.10 2.11 2.13 1.87 1.92 1.97 1.92 1.98 1.99 2.02
0.29 0.33 0.33 0.35 0.41 0.41 0.42 0.58 0.78 0.90 0.96 0.97 0.99 1.06 1.10 1.11 1.16 1.21 1.25 1.36 1.71 1.72 1.82 1.84 2.01 2.08 2.08 2.09 2.02 2.01 2.09 2.07 1.84 1.79 1.87 2.00 2.03 2.12 1.97 2.01 2.13 2.21 2.10 1.98 1.93 2.01 1.83 1.73 2.00
0.33 0.41 0.36 0.31 0.25 0.27 0.56 0.43 0.73 0.84 0.92 0.98 1.06 0.93 0.97 1.03 1.25 1.19 1.33 1.45 1.36 1.74 1.87 2.16 2.03 2.10 2.17 2.22 2.11 2.11 2.02 1.88 1.90 1.84 1.85 1.80 2.01 2.59 2.06 1.94 2.06 2.09 2.15 2.07 2.10 2.01 1.90 1.79 1.78
0.35 0.38 0.35 0.30 0.27 0.31 0.53 0.53 0.70 0.73 0.67 0.89 0.88 0.91 0.98 1.05 1.16 1.07 1.10 1.28 1.52 1.55 1.71 1.95 2.05 2.11 2.19 2.22 2.17 2.11 2.11 2.11 2.14 2.12 2.01 1.89 1.95 1.98 1.95 1.95 1.97 2.14 2.11 2.05 2.08 2.20 1.93 1.88 1.76
0.37 0.31 0.28 0.27 0.26 0.29 0.52 0.56 0.60 0.65 0.77 0.89 0.81 0.82 0.97 0.95 1.17 1.04 1.08 1.22 1.35 1.52 1.66 1.81 1.89 1.92 2.04 2.06 2.06 2.02 2.02 2.09 2.12 2.12 2.16 2.24 2.09 2.02 2.00 1.97 1.99 2.03 2.07 2.02 2.07 2.14 2.14 1.94 1.94
0.29 0.27 0.27 0.28 0.30 0.34 0.45 0.54 0.57 0.65 0.77 0.71 0.77 0.75 0.89 0.97 0.96 1.05 1.06 1.12 1.23 1.37 1.53 1.68 1.77 1.82 1.89 1.92 1.91 1.95 1.88 1.93 2.00 2.04 2.08 1.92 2.24 2.08 1.98 2.04 1.96 2.01 2.07 2.08 2.10 2.07 2.06 2.11 2.06
0.32 0.32 0.30 0.28 0.34 0.45 0.50 0.59 0.71 0.83 0.79 0.73 0.74 0.80 0.85 0.86 0.96 1.07 1.10 1.13 1.25 1.36 1.46 1.56 1.62 1.66 1.78 1.76 1.73 1.80 1.78 1.97 2.08 2.13 2.07 1.99 2.18 2.15 2.01 2.01 2.03 1.94 2.00 2.11 2.14 2.10 2.07 2.00 1.98
0.34 0.35 0.46 0.38 0.36 0.36 0.56 0.67 0.97 0.98 0.90 0.81 0.79 0.83 0.85 0.91 0.98 1.05 1.17 1.20 1.29 1.39 1.48 1.55 1.57 1.61 1.62 1.69 1.70 1.60 1.69 2.00 2.14 2.23 2.16 2.06 2.03 2.21 2.49 2.18 2.12 2.02 2.08 2.14 2.18 2.08 2.04 1.99 2.02
0.42 0.54 0.39 0.32 0.32 0.41 0.54 0.60 0.61 0.87 0.84 0.82 0.80 0.90 0.97 1.03 1.04 1.07 1.13 1.19 1.30 1.37 1.44 1.55 1.59 1.57 1.58 1.55 1.55 1.61 1.72 2.05 2.27 2.23 2.12 2.15 2.13 2.22 2.30 2.27 2.12 2.01 2.11 2.14 2.12 2.12 2.13 2.06 2.04
0.35 0.39 0.43 0.43 0.48 0.41 0.51 0.63 0.87 0.81 0.90 0.79 0.81 1.00 1.03 1.08 1.09 1.12 1.17 1.20 1.28 1.33 1.35 1.40 1.47 1.51 1.52 1.54 1.56 1.58 1.63 1.81 1.98 2.14 2.16 2.08 2.11 2.19 2.12 2.11 2.07 2.03 2.09 2.16 2.12 2.09 2.07 2.11 2.09
0.48 0.51 0.47 0.44 0.56 0.60 0.50 0.60 0.88 0.90 0.86 0.83 0.95 1.03 1.05 1.13 1.17 1.21 1.26 1.29 1.34 1.39 1.39 1.42 1.46 1.48 1.55 1.56 1.58 1.52 1.56 1.62 1.71 1.82 1.89 2.04 1.97 2.17 2.21 2.16 2.06 2.06 2.10 2.07 2.09 2.00 2.03 1.97 1.96